Regional Weather Roundup
Issued by NWS

Home | Current Version | Previous Version | Graphics & Text | Print | Product List | Glossary On
Versions: 1 2 3 4 5 6 7 8 9 10 11 12 13 14 15 16 17 18 19 20 21 22 23 24 25 26
000
ASUS45 KBOU 170210
RWRCO

WEATHER ROUNDUP FOR COLORADO
NATIONAL WEATHER SERVICE DENVER/BOULDER CO
700 PM MST TUE JAN 16 2018

NOTE: "FAIR" INDICATES FEW OR NO CLOUDS BELOW 12000 FEET WITH NO
SIGNIFICANT WEATHER AND/OR OBSTRUCTIONS TO VISIBILITY.

COZ001>005-013-030-031-170300-
...NORTHWEST COLORADO...

CITY           SKY/WX    TMP DP  RH WIND       PRES   REMARKS
CRAIG          FAIR      12   3  67 CALM      30.33R
HAYDEN         FAIR      17   2  51 E9        30.33R WCI   6
MEEKER         FAIR      24  15  68 CALM      30.31R
RABBIT EARS PA FAIR      19  -6  32 W3        30.30R
STEAMBOAT SPGS NOT AVBL
WALDEN         FAIR       9   0  66 S6        30.31R WCI  -1
$$

COZ006>008-011-170300-
...WEST CENTRAL VALLEYS...

CITY           SKY/WX    TMP DP  RH WIND       PRES   REMARKS
GRAND JUNCTION FAIR      32  17  54 VRB5      30.33R WCI  27
MONTROSE       FAIR      25  16  68 SE6       30.34R WCI  18
EAGLE          FAIR      20   6  55 E6        30.37R WCI  12
RIFLE          FAIR      27  17  66 SE3       30.33R
DELTA          FAIR      33  14  45 CALM      30.33R
NUCLA          FAIR      32  10  40 E8        30.35S WCI  25
$$

COZ017>023-064>068-170300-
...SOUTHWEST COLORADO...

CITY           SKY/WX    TMP DP  RH WIND       PRES   REMARKS
DURANGO        FAIR      30  20  66 CALM      30.32R
CORTEZ         FAIR      27  19  72 CALM      30.34R
PAGOSA SPRINGS FAIR      29  19  66 CALM      30.32R
TELLURIDE      FAIR      27   8  43 CALM      30.33S
WOLF CREEK PAS FAIR      23   0  36 N3        30.37S
$$

COZ009-010-012-014-032>034-037-058>063-170300-
...CENTRAL COLORADO...

CITY           SKY/WX    TMP DP  RH WIND       PRES   REMARKS
ASPEN          FAIR      20   1  43 SW10      30.29R WCI   9
BUENA VISTA    FAIR      16  -2  45 W6        30.28S WCI   8
COPPER MTN     NOT AVBL
BERTHOUD PASS  FAIR      12   1  62 NW16G28   30.29S WCI  -4
COTTONWOOD PAS   N/A     32  -2  23 CALM      30.28S
GUNNISON       FAIR      18  10  71 CALM      30.32R
KREMMLING      FAIR      14   3  62 CALM      30.38R
LEADVILLE      FAIR      14  -8  37 NE5       30.29R WCI   6
MONARCH PASS   FAIR      18  -4  38 SW18      30.40S WCI   2
SALIDA         FAIR      27   8  44 S3        30.36R
SUNLIGHT       FAIR      21  -8  27 SW5       30.36R WCI  15
WILKERSON PASS FAIR      23 -17  16 W3        30.31S
$$

COZ069>075-170300-
...SAN LUIS VALLEY/SANGRE DE CRISTO MOUNTAINS...

CITY           SKY/WX    TMP DP  RH WIND       PRES   REMARKS
ALAMOSA        FAIR      17   9  70 CALM      30.32R
DEL NORTE      FAIR      18  10  70 CALM      30.33R
LA VETA PASS   FAIR      16  12  86 SW24G30     N/A  WCI  -3
SAGUACHE       FAIR      12   7  79 NE3       30.34R
$$

COZ035-036-038>040-170300-
...NORTHERN COLORADO FRONT RANGE...

CITY           SKY/WX    TMP DP  RH WIND       PRES   REMARKS
DENVER INTL AP FAIR      21   8  57 S10       30.27F WCI  10
DMNS CITY PARK NOT AVBL
AURORA         CLEAR     22   5  48 S9        30.27F WCI  11
FRONT RANGE AP CLEAR     21  12  68 S6        30.28F WCI  14
ERIE MUNI ARPT FAIR      20  13  74 CALM      30.34F
BOULDER MUN AP FAIR      27  19  74 CALM      30.28F
CENTENNIAL     FAIR      21   5  50 S8        30.26F WCI  11
BROOMFIELD     CLEAR     28   9  43 NW3       30.27F
FORT COLLINS   FAIR      20  13  74 N7        30.30F WCI  11
LONGMONT       FAIR      19  13  76 W5        30.31F WCI  13
$$

COZ041-046-047-076>085-087-088-170300-
...PIKES PEAK/PALMER DIVIDE AND SOUTHERN FOOTHILLS...

CITY           SKY/WX    TMP DP  RH WIND       PRES   REMARKS
COLO. SPRINGS  FAIR      20   4  50 SE3       30.34R
A. F. ACADEMY  FAIR      19   1  44 CALM      30.31R
SCHRIEVER AFB  FAIR      14   4  62 CALM      30.33S
CHEYENNE MTN   FAIR      19   8  62 CALM      30.25S
ELLICOTT         N/A    N/A N/A N/A SW5         N/A
FALCON         FAIR      14   3  61 W8        30.31S WCI   3
FORT CARSON    FAIR      20   9  60 S6        30.33R WCI  13
LIMON          FAIR      15   1  53 CALM      30.33S
MONUMENT HILL  FAIR      18   5  57 S8        30.28S WCI   7
CANON CITY     FAIR      27  14  59 CALM      30.36R
WALSENBURG     FAIR      25  14  63 CALM      30.33S
TRINIDAD       FAIR      22   8  55 NW5       30.34S WCI  16
$$

COZ042>045-048>051-090-091-170300-
...NORTHEAST COLORADO...

CITY           SKY/WX    TMP DP  RH WIND       PRES   REMARKS
GREELEY ARPT   FAIR      14   5  67 N3        30.32S
AKRON          FAIR      17   2  51 S9        30.32F WCI   6
BURLINGTON     FAIR      12   1  61 S10       30.39S WCI  -1
WRAY           FAIR      18   0  45 SE6       30.41S WCI   9
YUMA           FAIR       9  -2  61 S6        30.36S WCI  -1
STERLING       FAIR      18   3  53 S5        30.34F WCI  11
HOLYOKE        FAIR      14   5  67 S9        30.39S WCI   2
FORT MORGAN    FAIR      17   1  49 NE6       30.32F WCI   9
$$

COZ086-089-092>099-170300-
...SOUTHEAST COLORADO...

CITY           SKY/WX    TMP DP  RH WIND       PRES   REMARKS
PUEBLO         FAIR      16   8  71 NE3       30.38R
LA JUNTA       FAIR      21  -3  35 E5        30.40S WCI  15
LAMAR          FAIR      16  -4  41 SE10      30.43R WCI   4
SPRINGFIELD      N/A     11  -2  56 S7        30.42R WCI   0
$$




USA.gov is the U.S. government's official web portal to all federal, state and local government web resources and services.